• En España
  • Lista de países
  • Para 7 días
  • Temperatura del agua
  • Mapa Satelital
  • El tiempo en el mapa
  • Informadores
  • user-avatar
    Iniciar sesión

    Tiempo cada hora Meppel

    Hoy, 27 Septiembre, Martes

    Tiempo Temperatura Precipitaciones Viento Presión Humedad
    00:00 +11°C° 0 mm 1 mps 768 mmHg 88%
    01:00 +11°C° 0 mm 1 mps 768 mmHg 88%
    02:00 +10°C° 0 mm 1 mps 768 mmHg 89%
    03:00 +10°C° 0 mm 1 mps 768 mmHg 89%
    04:00 +10°C° 0 mm 1 mps 768 mmHg 89%
    05:00 +10°C° 0 mm 1 mps 768 mmHg 89%
    06:00 +10°C° 0 mm 1 mps 768 mmHg 89%
    07:00 +13°C° 0 mm 2 mps 769 mmHg 81%
    08:00 +15°C° 0 mm 2 mps 769 mmHg 72%
    09:00 +18°C° 0 mm 2 mps 769 mmHg 64%
    10:00 +19°C° 0 mm 3 mps 769 mmHg 59%
    11:00 +20°C° 0 mm 3 mps 769 mmHg 54%
    12:00 +21°C° 0 mm 4 mps 769 mmHg 49%
    13:00 +21°C° 0 mm 4 mps 769 mmHg 49%
    14:00 +21°C° 0 mm 4 mps 768 mmHg 50%
    15:00 +21°C° 0 mm 4 mps 768 mmHg 50%
    16:00 +19°C° 0 mm 4 mps 768 mmHg 56%
    17:00 +17°C° 0 mm 4 mps 768 mmHg 62%
    18:00 +14°C° 0 mm 4 mps 768 mmHg 68%
    19:00 +14°C° 0 mm 4 mps 768 mmHg 67%
    20:00 +14°C° 0 mm 4 mps 768 mmHg 65%
    21:00 +14°C° 0 mm 5 mps 768 mmHg 63%
    22:00 +14°C° 0 mm 5 mps 768 mmHg 64%
    23:00 +14°C° 0 mm 5 mps 767 mmHg 65%

    Mañana, 28 Septiembre, Miércoles

    Tiempo Temperatura Precipitaciones Viento Presión Humedad
    00:00 +14°C° 0 mm 6 mps 767 mmHg 66%
    01:00 +15°C° 0 mm 6 mps 767 mmHg 69%
    02:00 +15°C° 0 mm 6 mps 767 mmHg 72%
    03:00 +16°C° 0 mm 7 mps 766 mmHg 75%
    04:00 +16°C° 0 mm 7 mps 766 mmHg 78%
    05:00 +16°C° 0 mm 7 mps 766 mmHg 81%
    06:00 +17°C° 0 mm 7 mps 766 mmHg 84%
    07:00 +17°C° 0 mm 7 mps 766 mmHg 79%
    08:00 +18°C° 0 mm 7 mps 767 mmHg 75%
    09:00 +20°C° 0 mm 7 mps 767 mmHg 71%
    10:00 +20°C° 0 mm 7 mps 767 mmHg 66%
    11:00 +21°C° 0 mm 7 mps 767 mmHg 62%
    12:00 +22°C° 0 mm 7 mps 767 mmHg 57%
    13:00 +22°C° 0 mm 7 mps 766 mmHg 57%
    14:00 +22°C° 0 mm 7 mps 766 mmHg 57%
    15:00 +21°C° 0 mm 7 mps 766 mmHg 56%
    16:00 +20°C° 0 mm 6 mps 766 mmHg 61%
    17:00 +19°C° 0 mm 5 mps 766 mmHg 66%
    18:00 +17°C° 0 mm 5 mps 766 mmHg 71%
    19:00 +16°C° 0 mm 5 mps 766 mmHg 71%
    20:00 +16°C° 0 mm 5 mps 766 mmHg 72%
    21:00 +16°C° 0 mm 5 mps 765 mmHg 73%
    22:00 +16°C° 0 mm 6 mps 765 mmHg 73%
    23:00 +16°C° 0 mm 6 mps 764 mmHg 72%

    Pasado mañana, 29 Septiembre, Jueves

    Tiempo Temperatura Precipitaciones Viento Presión Humedad
    00:00 +16°C° 0 mm 6 mps 764 mmHg 71%
    01:00 +16°C° 0 mm 6 mps 764 mmHg 72%
    02:00 +15°C° 0 mm 7 mps 763 mmHg 73%
    03:00 +15°C° 0 mm 7 mps 763 mmHg 74%
    04:00 +15°C° 0 mm 7 mps 763 mmHg 75%
    05:00 +14°C° 0 mm 7 mps 762 mmHg 75%
    06:00 +14°C° 0 mm 7 mps 762 mmHg 75%
    07:00 +16°C° 0 mm 7 mps 762 mmHg 72%
    08:00 +17°C° 0 mm 8 mps 761 mmHg 69%
    09:00 +18°C° 0 mm 9 mps 761 mmHg 66%
    10:00 +19°C° 0 mm 9 mps 761 mmHg 65%
    11:00 +21°C° 0 mm 9 mps 760 mmHg 64%
    12:00 +22°C° 0 mm 9 mps 760 mmHg 63%
    13:00 +22°C° 0 mm 8 mps 759 mmHg 63%
    14:00 +21°C° 0 mm 8 mps 759 mmHg 64%
    15:00 +21°C° 0 mm 8 mps 758 mmHg 65%
    16:00 +20°C° 0,1 mm 7 mps 758 mmHg 69%
    17:00 +20°C° 0,1 mm 7 mps 758 mmHg 73%
    18:00 +18°C° 0,1 mm 7 mps 758 mmHg 76%
    19:00 +17°C° 0,2 mm 6 mps 758 mmHg 79%
    20:00 +17°C° 0,2 mm 6 mps 758 mmHg 82%
    21:00 +16°C° 0,2 mm 5 mps 758 mmHg 85%
    22:00 +15°C° 0,2 mm 5 mps 758 mmHg 86%
    23:00 +15°C° 0,2 mm 4 mps 758 mmHg 88%

    30 Septiembre, Viernes

    Tiempo Temperatura Precipitaciones Viento Presión Humedad
    00:00 +14°C° 0,2 mm 4 mps 757 mmHg 89%
    01:00 +14°C° 0,2 mm 3 mps 757 mmHg 89%
    02:00 +14°C° 0,2 mm 3 mps 757 mmHg 90%
    03:00 +14°C° 0,2 mm 3 mps 757 mmHg 91%
    04:00 +13°C° 0,2 mm 3 mps 756 mmHg 92%
    05:00 +13°C° 0,2 mm 3 mps 756 mmHg 93%
    06:00 +14°C° 0,2 mm 2 mps 756 mmHg 94%
    07:00 +14°C° 0,9 mm 2 mps 756 mmHg 93%
    08:00 +14°C° 0,9 mm 2 mps 756 mmHg 93%
    09:00 +15°C° 0,9 mm 2 mps 756 mmHg 93%
    10:00 +15°C° 0,7 mm 2 mps 756 mmHg 92%
    11:00 +15°C° 0,7 mm 2 mps 756 mmHg 92%
    12:00 +15°C° 0,7 mm 2 mps 756 mmHg 91%
    13:00 +15°C° 0,3 mm 2 mps 756 mmHg 91%
    14:00 +15°C° 0,3 mm 2 mps 755 mmHg 91%
    15:00 +14°C° 0,3 mm 3 mps 755 mmHg 92%
    16:00 +14°C° 0,3 mm 3 mps 755 mmHg 93%
    17:00 +13°C° 0,3 mm 3 mps 755 mmHg 95%
    18:00 +13°C° 0,3 mm 3 mps 755 mmHg 96%
    19:00 +13°C° 0,1 mm 3 mps 755 mmHg 96%
    20:00 +13°C° 0,1 mm 3 mps 755 mmHg 96%
    21:00 +13°C° 0,1 mm 3 mps 755 mmHg 96%
    22:00 +13°C° 0,1 mm 4 mps 755 mmHg 96%
    23:00 +13°C° 0,1 mm 4 mps 755 mmHg 96%

    1 Octubre, Sábado

    Tiempo Temperatura Precipitaciones Viento Presión Humedad
    00:00 +13°C° 0,1 mm 4 mps 755 mmHg 96%
    01:00 +12°C° 0,1 mm 4 mps 755 mmHg 96%
    02:00 +12°C° 0,1 mm 4 mps 755 mmHg 96%
    03:00 +12°C° 0,1 mm 5 mps 754 mmHg 96%
    04:00 +12°C° 0 mm 5 mps 754 mmHg 96%
    05:00 +12°C° 0 mm 5 mps 754 mmHg 96%
    06:00 +10°C° 0 mm 5 mps 754 mmHg 97%
    07:00 +12°C° 0 mm 5 mps 755 mmHg 94%
    08:00 +13°C° 0 mm 5 mps 755 mmHg 92%
    09:00 +13°C° 0 mm 5 mps 755 mmHg 90%
    10:00 +14°C° 0 mm 4 mps 755 mmHg 84%
    11:00 +15°C° 0 mm 4 mps 755 mmHg 78%
    12:00 +18°C° 0 mm 4 mps 755 mmHg 72%
    13:00 +18°C° 0,1 mm 4 mps 755 mmHg 71%
    14:00 +18°C° 0,1 mm 4 mps 754 mmHg 69%
    15:00 +18°C° 0,1 mm 4 mps 754 mmHg 68%
    16:00 +16°C° 0,1 mm 3 mps 754 mmHg 74%
    17:00 +14°C° 0,1 mm 3 mps 755 mmHg 80%
    18:00 +13°C° 0,1 mm 2 mps 755 mmHg 86%
    19:00 +12°C° 0 mm 2 mps 755 mmHg 88%
    20:00 +12°C° 0 mm 2 mps 755 mmHg 89%
    21:00 +11°C° 0 mm 1 mps 755 mmHg 91%
    22:00 +11°C° 0 mm 1 mps 755 mmHg 91%
    23:00 +10°C° 0 mm 1 mps 755 mmHg 91%

    2 Octubre, Domingo

    Tiempo Temperatura Precipitaciones Viento Presión Humedad
    00:00 +10°C° 0 mm 1 mps 754 mmHg 91%
    01:00 +10°C° 0 mm 1 mps 754 mmHg 91%
    02:00 +9°C° 0 mm 2 mps 754 mmHg 90%
    03:00 +9°C° 0 mm 2 mps 754 mmHg 89%
    04:00 +9°C° 0,2 mm 2 mps 754 mmHg 90%
    05:00 +10°C° 0,2 mm 2 mps 753 mmHg 90%
    06:00 +10°C° 0,2 mm 2 mps 753 mmHg 90%
    07:00 +10°C° 0,9 mm 2 mps 754 mmHg 91%
    08:00 +12°C° 0,9 mm 2 mps 754 mmHg 91%
    09:00 +13°C° 0,9 mm 2 mps 755 mmHg 92%
    10:00 +12°C° 0,4 mm 3 mps 755 mmHg 91%
    11:00 +12°C° 0,4 mm 3 mps 755 mmHg 90%
    12:00 +12°C° 0,4 mm 3 mps 756 mmHg 89%
    13:00 +12°C° 0,1 mm 3 mps 756 mmHg 88%
    14:00 +12°C° 0,1 mm 3 mps 756 mmHg 88%
    15:00 +12°C° 0,1 mm 3 mps 756 mmHg 88%
    16:00 +12°C° 0 mm 3 mps 757 mmHg 89%
    17:00 +11°C° 0 mm 3 mps 757 mmHg 91%
    18:00 +11°C° 0 mm 3 mps 758 mmHg 92%
    19:00 +11°C° 0 mm 3 mps 758 mmHg 92%
    20:00 +11°C° 0 mm 3 mps 759 mmHg 92%
    21:00 +11°C° 0 mm 3 mps 760 mmHg 91%
    22:00 +10°C° 0 mm 3 mps 760 mmHg 91%
    23:00 +10°C° 0 mm 3 mps 761 mmHg 92%
    Mostrar más